Regional Weather Roundup
Issued by NWS

Home | Current Version | Previous Version | Graphics & Text | Print | Product List | Glossary On
Versions: 1 2 3 4 5 6 7 8 9 10 11 12 13 14 15 16 17 18 19 20 21 22 23 24 25 26 27 28 29 30 31 32 33 34 35 36 37 38 39 40 41 42 43 44 45 46 47 48 49 50
284
ASUS44 KJAN 281710
RWRMS

MISSISSIPPI HOURLY WEATHER ROUNDUP
NATIONAL WEATHER SERVICE JACKSON MS
1100 AM CST FRI NOV 28 2014

NOTE: "FAIR: INDICATES FEW OR NO CLOUDS BELOW 12,000 FEET WITH NO
SIGNIFICANT WEATHER AND/OR OBSTRUCTIONS TO VISIBILITY.

MSZ001>002-007>008-010>013-018>021-025>028-034>036-281800-
NORTHWEST MISSISSIPPI

CITY           SKY/WX    TMP DP  RH WIND       PRES   REMARKS
CLARKSDALE     FAIR      46  34  61 SE13      30.38F
CLEVELAND      FAIR      47  35  62 SE13      30.37F
GREENWOOD      SUNNY     50  25  37 SE8       30.40F
GREENVILLE     SUNNY     48  34  58 S14       30.37F
GRENADA        FAIR      46  32  57 SE6       30.40F
OLIVE BRANCH   SUNNY     43  30  61 SE9       30.36F
OXFORD         FAIR      43  25  49 SE8       30.39F
TUNICA         SUNNY     45  34  65 S13       30.38F
$$

MSZ003>006-009-014>017-022>024-029>033-037>039-281800-
NORTHEAST MISSISSIPPI

CITY           SKY/WX    TMP DP  RH WIND       PRES   REMARKS
COLUMBUS AFB   SUNNY     44  24  44 SE7       30.42F
CORINTH        FAIR      43  27  52 SE6       30.40F
GOLDN TRIANGLE SUNNY     45  28  53 SE7       30.42F
STARKVILLE     FAIR      45  30  57 SE6       30.42F
TUPELO         SUNNY     44  28  53 S8        30.41F
$$

MSZ040-058-281800-
CENTRAL MISSISSIPPI

CITY           SKY/WX    TMP DP  RH WIND       PRES   REMARKS
JACKSON INTL   SUNNY     50  26  39 SE8       30.41F
JACKSON HAWKNS SUNNY     49  27  42 SE6       30.41F
MERIDIAN KEY   SUNNY     49  24  37 NE6       30.42F
MERIDIAN NAS   SUNNY     46  20  35 E7        30.43F
RAYMOND        FAIR      50  46  87 SE6       30.40F
VICKSBURG      SUNNY     52  33  48 SE12      30.40F
$$

MSZ059>079-281800-
SOUTH MISSISSIPPI

CITY           SKY/WX    TMP DP  RH WIND       PRES   REMARKS
BROOKHAVEN     FAIR      48  32  53 CALM      30.42F
HATTIESBURG    SUNNY     50  27  40 E7        30.43F
MCCOMB         SUNNY     50  27  40 SE7       30.41F
NATCHEZ        SUNNY     54  32  43 SE7       30.40F
PINE BELT      SUNNY     48  25  40 E6        30.43F
$$

MSZ080>082-281800-
COASTAL MISSISSIPPI

CITY           SKY/WX    TMP DP  RH WIND       PRES   REMARKS
BAY ST LOUIS   SUNNY     52  27  37 SE6       30.43F
BILOXI         SUNNY     51  30  43 E6        30.42F
PASCAGOULA     SUNNY     53  29  39 VRB3      30.42F
GULFPORT       SUNNY     50  29  44 E5        30.42F
$$



USA.gov is the U.S. government's official web portal to all federal, state and local government web resources and services.